Погода в Плунге

Литва     55°54′37″N   21°50′47″E
темп.,
°C
ветер,
м/с
пор.,
м/с
влажн.,
%
обл.,
%
осадки,
мм/ч
давл.,
гПа
погр.,
м
22 октября, пт
пт2200:00+8зюз10177895 0.3 9881219
03:00+7зюз101678100 0.9 9891210
06:00+7зюз10167740 1.0 9901098
09:00+6з915706 1.8 9931136
12:00+8з10176663 0.5 9951854
15:00+8зюз91584100 1.9 9941675
18:00+7юз101991100 4.1 9931464
21:00+6зсз5991100 11.4 993992
23 октября, сб
сб2300:00+5з5127899 2.9 997452
03:00+5з5127799 4.2 999411
06:00+5з5127814 0.4 1001400
09:00+4з3108625 0.5 1003277
12:00+8сз687433 1.0 1006956
15:00+8ссз697057 1.3 10101225
18:00+5сз6127893 0.2 1014825
21:00+5сз61281100 0.4 1018930
24 октября, вс
вс2400:00+5ссз6118494 0.3 1021975
03:00+3сз388716 0.4 1023236
06:00+3сз258499 0.1 1025132
09:00+2зсз2682100 0.1 1027118
12:00+6сз3567100 0.0 1029544
15:00+7з3463100 0.0 1029963
18:00+5юз227678 0.0 102928
21:00+4ю3585100 0.0 102998
25 октября, пн
пн2500:00+3ю498932 0.0 1028174
03:00+3ю4118860 0.0 1027228
06:00+3ю5119555 0.0 1026263
09:00+3ю5129537 0.0 1026315
12:00+7ююз6127718 0.0 1025536
15:00+9ююз611645 0.0 1023622
18:00+7ю512700 0.0 1022388
21:00+5ю6147199 0.0 1021373
26 октября, вт
вт2600:00+4ю51376100 0.0 1020329
03:00+4ю5128280 0.0 1019251
06:00+3ю410908 0.0 1018191
09:00+4ююз499594 0.0 1017167
12:00+10юз5981100 0.0 1017696
15:00+10зюз6979100 0.0 1016842
18:00+9юз5119797 0.1 1016598
21:00+9зюз51190100 0.4 1016620